Tracking 22779 objects as of 12-Apr-2021
HD Live streaming from Space Station
objects crossing your sky now

STARLINK-1945

Track STARLINK-1945 now!
10-day predictions
STARLINK-1945 is classified as:


NORAD ID: 46775
Int'l Code: 2020-074AN
Perigee: 554.0 km
Apogee: 554.8 km
Inclination: 53.1 °
Period: 95.6 minutes
Semi major axis: 6925 km
RCS: Unknown
Launch date: October 24, 2020
Source: United States (US)
Launch site: AIR FORCE EASTERN TEST RANGE (AFETR)
aabbcc
Your satellite tracking list
Your tracking list is empty




NASA's NSSDC Master Catalog

Two Line Element Set (TLE):
1 46775U 20074AN  21101.49273665  .00000268  00000-0  36864-4 0  9996
2 46775  53.0533 106.5851 0000612  91.7569 268.3490 15.06390829 25879
Source of the keplerian elements: AFSPC